ZHEDA PIXING 1B

Satellite information

Favourite Embed

Satellite Type and Status

PAYLOADIN ORBIT

Key statistics

Satellite ZHEDA PIXING 1B at a glance.

Uptime

5509

Days in orbit

Revolutions

≈ 14.9

Per day

Orbit

SSO

Sun Synchronous Orbit

Inclination

97.9

Latest

Satellite identification and parameters

Extended collection of information and parameters for ZHEDA PIXING 1B.

Object identification

Identified? True

Debris? False

Object name: ZHEDA PIXING 1B

International designator: 2010-047B

Object number (NORAD): 37166

Object ID (CCSDS): 37166

Country: PEOPLES REPUBLIC OF CHINA (PRC)

Current information (Y/N): Y

RCS size: MEDIUM

Orbital parameters

Period: 96.651 minutes

Inclination: 97.9196 deg

SMA: 6976.382 km

Apoapsis: 612.027 km

Periapsis: 584.467 km

RAAN: 265.9548 deg

Eccentricy: 0.00197524

Argument of periapsis: 354.7121 deg

Mean anomaly: 5.3885 deg

Mean motion: 14.8990096 rev/day

Mean motion (dot): 0.00004949 rev/day2

B* drag term: 0.00051843174 1/REarth

Two-line elements (TLE)

Creation date: Oct. 21, 2025, 3:26 a.m.

Reference frame: TEME

Reference center: EARTH

Epoch: Oct. 20, 2025, 10:17 p.m. UTC

TLE line 0: 0 ZHEDA PIXING 1B

TLE line 1: 1 37166U 10047B 25293.92869785 .00004949 00000-0 51843-3 0 9990

TLE line 2: 2 37166 97.9196 265.9548 0019752 354.7121 5.3885 14.89900960814774

Live tracking on map

Real-time ground track for satellite ZHEDA PIXING 1B.

In-orbit conjunctions

There are no conjunctions computed for ZHEDA PIXING 1B, at the moment. Check back to stay up to date, as we update our databases every day.

Go to all conjunctions

Associated space launch

ZHEDA PIXING 1B was lifted into orbit during the mission ‘Long March 2D | Yaogan-11, Zheda Pixing 1B & Zheda Pixing 1C’, on board a Long March 2D space rocket.

The launch took place on Sept. 22, 2010, 2:42 a.m. from Launch Area 4 (SLS-2 / 603).

For more information about the launch, click the button.

Launch to space Long March 2D | Yaogan-11, Zheda Pixing 1B & Zheda Pixing 1C
Long March 2D | Yaogan-11, Zheda Pixing 1B & Zheda Pixing 1C

Agency: N/A

Status: Launch Successful

Launch date: Sept. 22, 2010, 2:42 a.m. UTC

Rocket: Long March 2D

Launch pad: Launch Area 4 (SLS-2 / 603)

Location: Jiuquan Satellite Launch Center, People's Republic of China

...

Latest news about this satellite

There are no fresh news available about this satellite. Check back as we update our databases every day.


Newsletter sign-up

Weekly statistics, charts and insights to help you stay on top of the space industry.